London-Corbin, KY

11:35 AM EDT on August 23, 2019 (GMT -0400)
London-Corbin / McKee

Weather History for KLOZ - June, 2019

Change the Weather History Date:

Saturday, June 8, 2019

  Actual Average Record
Temperature  
Mean Temperature 75 °F 71 °F  
Max Temperature 82 °F 82 °F 92 °F (1969)
Min Temperature 68 °F 60 °F 41 °F (1977)
Degree Days  
Heating Degree Days 0 0  
Month to date heating degree days 0 7  
Since 1 June heating degree days 0 7  
Since 1 July heating degree days 4024 4203  
Cooling Degree Days 10 7  
Month to date cooling degree days 51 46  
Year to date cooling degree days 229 160  
Since 1 June cooling degree days 51 46  
Growing Degree Days 25 (Base 50)    
Moisture  
Dew Point 70 °F    
Average Humidity 83    
Maximum Humidity 100    
Minimum Humidity 65    
Precipitation  
Precipitation 0.10 in 0.15 in 2.05 in (1979)
Month to date precipitation 2.74 1.25  
Sea Level Pressure  
Sea Level Pressure 29.82 in    
Wind  
Wind Speed 6 mph (ENE)    
Max Wind Speed 13 mph    
Max Gust Speed 20 mph    
Visibility 9 miles    
Events Rain    
T = Trace of Precipitation, MM = Missing Value Source: NWS Daily Summary

Daily Weather History Graph

Daily Weather History Graph

Search for Another Location

Airport or City:

Astronomy

Jun. 08, 2019 Rise Set
Actual Time 6:16 AM EDT 8:54 PM EDT
Civil Twilight 5:45 AM EDT 9:25 PM EDT
Nautical Twilight 5:07 AM EDT 10:03 PM EDT
Astronomical Twilight 4:24 AM EDT 10:46 PM EDT
Moon 11:39 AM EDT (6/8) 12:58 AM EDT (6/8)
Length of Visible Light 15h 39m
Length of Day
14h 38m
Waxing Crescent, 32% of the Moon is Illuminated
Jun 8
Waxing Crescent
Jun 10
First Quarter
Jun 17
Full
Jun 25
Last Quarter
Jul 2
New

Hourly Weather History & Observations

Time (EDT) Temp. Heat Index Dew Point Humidity Pressure Visibility Wind Dir Wind Speed Gust Speed Precip Events Conditions
12:03 AM 71.1 °F - 70.0 °F 96% 29.80 in 10.0 mi ENE 6.9 mph - 0.00 in   Mostly Cloudy
12:41 AM 70.0 °F - 70.0 °F 100% 29.81 in 10.0 mi Variable 4.6 mph - 0.00 in   Overcast
12:53 AM 70.0 °F - 70.0 °F 100% 29.78 in 10.0 mi SE 4.6 mph - 0.00 in Rain Light Rain
1:53 AM 68.0 °F - 66.9 °F 96% 29.78 in 10.0 mi ESE 4.6 mph - 0.00 in   Clear
2:53 AM 68.0 °F - 68.0 °F 100% 29.77 in 10.0 mi Calm Calm - N/A   Partly Cloudy
3:53 AM 68.0 °F - 68.0 °F 100% 29.78 in 10.0 mi East 3.5 mph - N/A   Mostly Cloudy
4:53 AM 69.1 °F - 69.1 °F 100% 29.79 in 10.0 mi Calm Calm - 0.01 in Rain Light Rain
5:53 AM 69.1 °F - 69.1 °F 100% 29.81 in 10.0 mi NE 3.5 mph - 0.00 in   Overcast
6:53 AM 69.1 °F - 68.0 °F 96% 29.81 in 10.0 mi NE 4.6 mph - N/A   Overcast
7:53 AM 69.1 °F - 68.0 °F 96% 29.83 in 10.0 mi NE 3.5 mph - N/A   Mostly Cloudy
8:53 AM 71.1 °F - 68.0 °F 90% 29.83 in 10.0 mi ENE 5.8 mph - N/A   Scattered Clouds
9:07 AM 71.1 °F - 68.0 °F 90% 29.87 in 10.0 mi ENE 4.6 mph - N/A   Mostly Cloudy
9:53 AM 72.0 °F - 69.1 °F 91% 29.84 in 10.0 mi East 8.1 mph - N/A   Scattered Clouds
10:53 AM 73.0 °F - 69.1 °F 87% 29.84 in 10.0 mi ENE 6.9 mph - N/A   Scattered Clouds
11:21 AM 77.0 °F - 70.0 °F 79% 29.87 in 10.0 mi ENE 6.9 mph - N/A   Mostly Cloudy
11:29 AM 77.0 °F - 71.1 °F 82% 29.87 in 10.0 mi East 9.2 mph - N/A   Mostly Cloudy
11:53 AM 75.9 °F - 70.0 °F 82% 29.83 in 10.0 mi East 5.8 mph - N/A   Mostly Cloudy
12:07 PM 77.0 °F - 70.0 °F 79% 29.87 in 10.0 mi East 5.8 mph - N/A   Scattered Clouds
12:32 PM 78.1 °F - 70.0 °F 76% 29.87 in 10.0 mi Variable 5.8 mph - N/A   Mostly Cloudy
12:46 PM 78.1 °F - 71.1 °F 79% 29.87 in 10.0 mi East 5.8 mph - N/A   Mostly Cloudy
12:53 PM 78.1 °F - 70.0 °F 76% 29.83 in 10.0 mi East 6.9 mph - N/A   Scattered Clouds
1:53 PM 80.1 °F 83.6 °F 71.1 °F 74% 29.83 in 10.0 mi East 8.1 mph - N/A   Mostly Cloudy
2:53 PM 82.0 °F 85.9 °F 70.0 °F 67% 29.80 in 10.0 mi Variable 4.6 mph - N/A   Scattered Clouds
3:53 PM 78.1 °F - 70.0 °F 76% 29.79 in 10.0 mi ENE 6.9 mph - N/A   Partly Cloudy
4:53 PM 75.9 °F - 71.1 °F 85% 29.79 in 10.0 mi ENE 9.2 mph - 0.00 in   Mostly Cloudy
5:53 PM 77.0 °F - 72.0 °F 84% 29.79 in 10.0 mi NE 8.1 mph - N/A   Partly Cloudy
6:29 PM 73.9 °F - 72.0 °F 93% 29.84 in 1.8 mi ENE 4.6 mph - 0.06 in Rain Heavy Rain
6:37 PM 73.0 °F - 72.0 °F 96% 29.83 in 3.0 mi NNE 6.9 mph - 0.07 in Rain Light Rain
6:53 PM 73.0 °F - 72.0 °F 96% 29.79 in 5.0 mi NNE 10.4 mph - 0.09 in Rain Rain
7:53 PM 73.9 °F - 72.0 °F 93% 29.81 in 10.0 mi East 5.8 mph - 0.00 in   Mostly Cloudy
8:53 PM 73.0 °F - 71.1 °F 93% 29.82 in 10.0 mi East 5.8 mph - N/A   Partly Cloudy
9:53 PM 72.0 °F - 70.0 °F 93% 29.83 in 10.0 mi East 8.1 mph - N/A   Mostly Cloudy
10:53 PM 71.1 °F - 68.0 °F 90% 29.84 in 10.0 mi East 4.6 mph - N/A   Mostly Cloudy
11:53 PM 70.0 °F - 68.0 °F 93% 29.86 in 10.0 mi East 4.6 mph - N/A   Overcast